User: anonymous   Login
Location: Unspecified
(20.0000°S, 0.0000°E)
Time: 02:40:00
(UTC+00:00)
Language:

JUGNU - Orbit

View from above orbital plane
View from above orbital plane
View from above satellite
View from above satellite

Ground track
Ground track

The orbit data is extracted from the following two-line orbital elements,

1 37839U 11058B   19203.23441294  .00000305  00000-0  20720-4 0  9992
2 37839  19.9609 131.3674 0018775 337.2310 176.2955 14.12654508402005
Epoch (UTC): 22 July 2019 05:37:33
Eccentricity: 0.0018775
inclination: 19.9609°
perigee height: 837 km
apogee height: 864 km
right ascension of ascending node: 131.3674°
argument of perigee: 337.2310°
revolutions per day: 14.12654508
mean anomaly at epoch: 176.2955°
orbit number at epoch: 40200

The dashed part of the orbit path shows where the satellite is in the earth's shadow,  

DLR